When you browse on this site, cookies collect data to enhance your experience and personalize the content and advertising you see.
Visit our Privacy Policy to learn more. By continuing to use the site, you agree to this use of cookies and data.
  • In Schweiz
  • Länderverzeichnis
  • Für 7 Tage
  • Wassertemperatur
  • Satellitenkarten
  • Wetterkarte
  • Widgets
  • user-avatar
    Anmelden

    Stündliche Wetter Plesna

    Heute, 26 April, Freitag

    Zeit Temperatur Niederschläge Wind Luftdruck Luftfeuchtigkeit
    00:00 +11°C° 0 mm 4 m/S 740 mmHg 73%
    01:00 +11°C° 0 mm 4 m/S 740 mmHg 75%
    02:00 +10°C° 0 mm 4 m/S 740 mmHg 75%
    03:00 +10°C° 0 mm 4 m/S 740 mmHg 76%
    04:00 +10°C° 0 mm 4 m/S 739 mmHg 77%
    05:00 +8°C° 0 mm 4 m/S 739 mmHg 78%
    06:00 +11°C° 0 mm 4 m/S 739 mmHg 75%
    07:00 +12°C° 0 mm 4 m/S 739 mmHg 72%
    08:00 +13°C° 0 mm 4 m/S 739 mmHg 71%
    09:00 +15°C° 0.2 mm 4 m/S 739 mmHg 68%
    10:00 +18°C° 0.2 mm 4 m/S 739 mmHg 64%
    11:00 +19°C° 0.2 mm 4 m/S 739 mmHg 61%
    12:00 +21°C° 0 mm 4 m/S 738 mmHg 57%
    13:00 +22°C° 0 mm 4 m/S 738 mmHg 54%
    14:00 +23°C° 0 mm 5 m/S 738 mmHg 51%
    15:00 +23°C° 0 mm 4 m/S 738 mmHg 52%
    16:00 +23°C° 0 mm 4 m/S 737 mmHg 53%
    17:00 +23°C° 0 mm 4 m/S 737 mmHg 53%
    18:00 +21°C° 0.3 mm 4 m/S 737 mmHg 61%
    19:00 +19°C° 0.3 mm 4 m/S 736 mmHg 68%
    20:00 +18°C° 0.3 mm 4 m/S 736 mmHg 75%
    21:00 +17°C° 1.5 mm 4 m/S 736 mmHg 78%
    22:00 +15°C° 1.5 mm 4 m/S 736 mmHg 81%
    23:00 +15°C° 1.5 mm 5 m/S 736 mmHg 83%

    Morgen, 27 April, Samstag

    Zeit Temperatur Niederschläge Wind Luftdruck Luftfeuchtigkeit
    00:00 +14°C° 0.4 mm 4 m/S 736 mmHg 85%
    01:00 +14°C° 0.4 mm 4 m/S 735 mmHg 86%
    02:00 +13°C° 0.4 mm 4 m/S 735 mmHg 88%
    03:00 +13°C° 0.9 mm 3 m/S 735 mmHg 89%
    04:00 +13°C° 0.9 mm 3 m/S 734 mmHg 91%
    05:00 +12°C° 0.9 mm 3 m/S 734 mmHg 93%
    06:00 +13°C° 1.2 mm 3 m/S 734 mmHg 90%
    07:00 +14°C° 1.2 mm 4 m/S 734 mmHg 87%
    08:00 +15°C° 1.2 mm 4 m/S 734 mmHg 84%
    09:00 +18°C° 0.5 mm 4 m/S 734 mmHg 79%
    10:00 +19°C° 0.5 mm 4 m/S 734 mmHg 75%
    11:00 +20°C° 0.5 mm 4 m/S 734 mmHg 70%
    12:00 +21°C° 0 mm 4 m/S 734 mmHg 64%
    13:00 +23°C° 0 mm 4 m/S 733 mmHg 57%
    14:00 +25°C° 0 mm 4 m/S 733 mmHg 51%
    15:00 +25°C° 0 mm 4 m/S 733 mmHg 52%
    16:00 +25°C° 0 mm 3 m/S 733 mmHg 54%
    17:00 +25°C° 0 mm 3 m/S 732 mmHg 55%
    18:00 +23°C° 0.8 mm 2 m/S 732 mmHg 63%
    19:00 +20°C° 0.8 mm 2 m/S 732 mmHg 71%
    20:00 +19°C° 0.8 mm 1 m/S 732 mmHg 79%
    21:00 +19°C° 0.4 mm 1 m/S 732 mmHg 81%
    22:00 +18°C° 0.4 mm 1 m/S 732 mmHg 83%
    23:00 +18°C° 0.4 mm 1 m/S 732 mmHg 85%

    übermorgen, 28 April, Sonntag

    Zeit Temperatur Niederschläge Wind Luftdruck Luftfeuchtigkeit
    00:00 +16°C° 0.5 mm 2 m/S 732 mmHg 87%
    01:00 +16°C° 0.5 mm 2 m/S 732 mmHg 88%
    02:00 +14°C° 0.5 mm 3 m/S 732 mmHg 90%
    03:00 +15°C° 0.1 mm 2 m/S 732 mmHg 92%
    04:00 +14°C° 0.1 mm 2 m/S 732 mmHg 94%
    05:00 +14°C° 0.1 mm 1 m/S 732 mmHg 96%
    06:00 +15°C° 0 mm 1 m/S 732 mmHg 93%
    07:00 +16°C° 0 mm 1 m/S 732 mmHg 89%
    08:00 +16°C° 0 mm 1 m/S 732 mmHg 86%
    09:00 +18°C° 0 mm 1 m/S 732 mmHg 83%
    10:00 +18°C° 0 mm 2 m/S 733 mmHg 79%
    11:00 +19°C° 0 mm 2 m/S 733 mmHg 75%
    12:00 +19°C° 0.1 mm 2 m/S 733 mmHg 73%
    13:00 +20°C° 0.1 mm 2 m/S 732 mmHg 70%
    14:00 +20°C° 0.1 mm 2 m/S 732 mmHg 67%
    15:00 +20°C° 0.5 mm 2 m/S 732 mmHg 69%
    16:00 +20°C° 0.5 mm 2 m/S 732 mmHg 71%
    17:00 +20°C° 0.5 mm 3 m/S 732 mmHg 72%
    18:00 +18°C° 0.5 mm 3 m/S 732 mmHg 78%
    19:00 +17°C° 0.5 mm 2 m/S 732 mmHg 84%
    20:00 +16°C° 0.5 mm 2 m/S 732 mmHg 90%
    21:00 +15°C° 0 mm 2 m/S 732 mmHg 92%
    22:00 +15°C° 0 mm 2 m/S 732 mmHg 94%
    23:00 +14°C° 0 mm 2 m/S 732 mmHg 95%

    29 April, Montag

    Zeit Temperatur Niederschläge Wind Luftdruck Luftfeuchtigkeit
    00:00 +14°C° 0.2 mm 2 m/S 732 mmHg 96%
    01:00 +14°C° 0.2 mm 2 m/S 732 mmHg 96%
    02:00 +13°C° 0.2 mm 3 m/S 732 mmHg 96%
    03:00 +13°C° 0.7 mm 3 m/S 732 mmHg 96%
    04:00 +13°C° 0.7 mm 3 m/S 732 mmHg 97%
    05:00 +13°C° 0.7 mm 2 m/S 732 mmHg 97%
    06:00 +13°C° 0.2 mm 3 m/S 732 mmHg 93%
    07:00 +14°C° 0.2 mm 3 m/S 732 mmHg 89%
    08:00 +16°C° 0.2 mm 3 m/S 732 mmHg 86%
    09:00 +15°C° 0 mm 4 m/S 733 mmHg 81%
    10:00 +16°C° 0 mm 5 m/S 733 mmHg 76%
    11:00 +17°C° 0 mm 5 m/S 733 mmHg 71%
    12:00 +19°C° 0.1 mm 5 m/S 733 mmHg 67%
    13:00 +19°C° 0.1 mm 6 m/S 733 mmHg 64%
    14:00 +19°C° 0.1 mm 6 m/S 733 mmHg 60%
    15:00 +19°C° 0.3 mm 6 m/S 733 mmHg 64%
    16:00 +17°C° 0.3 mm 6 m/S 733 mmHg 69%
    17:00 +16°C° 0.3 mm 5 m/S 732 mmHg 73%
    18:00 +15°C° 0.5 mm 6 m/S 732 mmHg 79%
    19:00 +13°C° 0.5 mm 6 m/S 732 mmHg 84%
    20:00 +11°C° 0.5 mm 6 m/S 733 mmHg 89%
    21:00 +11°C° 0.5 mm 6 m/S 732 mmHg 90%
    22:00 +10°C° 0.5 mm 6 m/S 732 mmHg 90%
    23:00 +10°C° 0.5 mm 6 m/S 732 mmHg 91%

    30 April, Dienstag

    Zeit Temperatur Niederschläge Wind Luftdruck Luftfeuchtigkeit
    00:00 +10°C° 0.1 mm 6 m/S 732 mmHg 91%
    01:00 +9°C° 0.1 mm 5 m/S 732 mmHg 91%
    02:00 +9°C° 0.1 mm 5 m/S 732 mmHg 91%
    03:00 +9°C° 0.4 mm 5 m/S 732 mmHg 92%
    04:00 +10°C° 0.4 mm 4 m/S 732 mmHg 92%
    05:00 +10°C° 0.4 mm 4 m/S 732 mmHg 93%
    06:00 +10°C° 0.1 mm 4 m/S 732 mmHg 93%
    07:00 +10°C° 0.1 mm 4 m/S 732 mmHg 92%
    08:00 +10°C° 0.1 mm 4 m/S 732 mmHg 92%
    09:00 +10°C° 0.1 mm 4 m/S 732 mmHg 91%
    10:00 +10°C° 0.1 mm 4 m/S 732 mmHg 91%
    11:00 +10°C° 0.1 mm 4 m/S 732 mmHg 90%
    12:00 +9°C° 0.1 mm 5 m/S 732 mmHg 89%
    13:00 +9°C° 0.1 mm 5 m/S 732 mmHg 88%
    14:00 +9°C° 0.1 mm 5 m/S 732 mmHg 87%
    15:00 +9°C° 0 mm 5 m/S 732 mmHg 87%
    16:00 +9°C° 0 mm 5 m/S 732 mmHg 87%
    17:00 +9°C° 0 mm 5 m/S 732 mmHg 86%
    18:00 +8°C° 0.1 mm 5 m/S 732 mmHg 87%
    19:00 +8°C° 0.1 mm 4 m/S 732 mmHg 88%
    20:00 +7°C° 0.1 mm 4 m/S 732 mmHg 89%
    21:00 +7°C° 0 mm 4 m/S 732 mmHg 90%
    22:00 +7°C° 0 mm 4 m/S 732 mmHg 90%
    23:00 +7°C° 0 mm 4 m/S 732 mmHg 91%

    1 Mai, Mittwoch

    Zeit Temperatur Niederschläge Wind Luftdruck Luftfeuchtigkeit
    00:00 +7°C° 0 mm 4 m/S 732 mmHg 91%
    01:00 +7°C° 0 mm 4 m/S 732 mmHg 91%
    02:00 +7°C° 0 mm 3 m/S 732 mmHg 91%
    03:00 +7°C° 0 mm 3 m/S 732 mmHg 90%
    04:00 +7°C° 0 mm 3 m/S 732 mmHg 89%
    05:00 +5°C° 0 mm 3 m/S 732 mmHg 88%
    06:00 +7°C° 0 mm 3 m/S 733 mmHg 84%
    07:00 +8°C° 0 mm 3 m/S 733 mmHg 80%
    08:00 +9°C° 0 mm 3 m/S 733 mmHg 75%
    09:00 +10°C° 0 mm 4 m/S 733 mmHg 68%
    10:00 +11°C° 0 mm 4 m/S 733 mmHg 61%
    11:00 +12°C° 0 mm 4 m/S 733 mmHg 54%
    12:00 +13°C° 0 mm 4 m/S 733 mmHg 52%
    13:00 +13°C° 0 mm 4 m/S 732 mmHg 49%
    14:00 +14°C° 0 mm 4 m/S 732 mmHg 47%
    15:00 +13°C° 0 mm 4 m/S 732 mmHg 49%
    16:00 +13°C° 0 mm 4 m/S 732 mmHg 52%
    17:00 +13°C° 0 mm 4 m/S 732 mmHg 54%
    18:00 +11°C° 0 mm 3 m/S 732 mmHg 58%
    19:00 +10°C° 0 mm 3 m/S 732 mmHg 62%
    20:00 +9°C° 0 mm 2 m/S 732 mmHg 66%
    21:00 +9°C° 0 mm 2 m/S 732 mmHg 65%
    22:00 +8°C° 0 mm 2 m/S 732 mmHg 64%
    23:00 +8°C° 0 mm 2 m/S 732 mmHg 63%
    Mehr zeigen